MOST

Last updated on Thu Jul 03 2025 00:03:31 GMT+0000 (Coordinated Universal Time)

1 27843U 03031D 25183.60847157 .00000044 00000+0 40411-4 0 9999 2 27843 98.7050 191.2029 0009918 175.1307 184.9968 14.21214178141057
UTC large
Height (km)
Speed (km/s)
/
Latitude / Longitude
Inclination (degrees)
Orbital Period (minutes)
Azimuth
Elevation
Range (km)
Doppler Factor

Next 0 passes for location: London (51.5072 / 0.1276)

Sorry there are no passes over London.